Home > Weather > Naples > Past weeks

Flag for USA Past Weather in Naples, Florida, USA — Yesterday and Last 2 Weeks

Now
90 °F

Thundershowers. Scattered clouds.


Feels Like: 99 °F
Forecast: 76 / 89 °F
Wind: 5 mph from Northeast

Location: Naples Municipal

Current Time: Jul 25, 2016 at 4:13:02 PM

Latest Report: Jul 25, 2016 at 2:53 PM


Visibility: 10 mi

Pressure: 30.03 "Hg

Humidity: 59%

Dew Point: 74 °F

Location of NaplesLocation

Past Weather in Naples — Graph

°F

Naples Temperature Yesterday

Maximum temperature yesterday: 89 °F (at 12:53 PM)
Minimum temperature yesterday: 75 °F (at 3:53 AM)
Average temperature yesterday: 80 °F

High & Low Weather Summary for the Past Weeks

 TemperatureHumidityPressure
High92 °F (Jul 17, 1:53 PM)100% (Jul 16, 6:53 PM)30.16 "Hg (Jul 16, 6:53 PM)
Low73 °F (Jul 23, 3:53 AM)54% (Jul 15, 12:53 PM)29.98 "Hg (Jul 15, 5:53 PM)
Average81 °F81%30.07 "Hg
* Reported Jul 10 2:53 PM — Jul 25 2:53 PM, Naples, Weather by CustomWeather, © 2016

Note: Actual official high and low records may vary slightly from our data, if they occured in-between our weather recording intervals... More about our weather records

Advertising

Naples Weather History for the Previous 24 Hours

Scroll right to see more
 ConditionsComfort  
Time TempWeatherWind HumidityBarometerVisibility
2:53 PM
Mon, Jul 25
90 °FThundershowers. Scattered clouds.5 mph59%30.03 "Hg10 mi
1:53 PM89 °FOvercast.7 mph55%30.04 "Hg10 mi
12:53 PM90 °FScattered clouds.9 mph54%30.05 "Hg10 mi
11:53 AM89 °FScattered clouds.9 mph59%30.06 "Hg10 mi
10:53 AM87 °FScattered clouds.9 mph63%30.07 "Hg10 mi
9:53 AM84 °FPassing clouds.7 mph77%30.07 "Hg10 mi
8:53 AM81 °FSunny.10 mph82%30.06 "Hg10 mi
7:53 AM77 °FSunny.6 mph88%30.04 "Hg10 mi
6:53 AM75 °FClear.6 mph90%30.03 "Hg10 mi
5:53 AM74 °FClear.5 mph97%30.02 "Hg10 mi
4:53 AM74 °FClear.5 mph97%30.02 "Hg10 mi
3:53 AM75 °FClear.3 mph94%30.02 "Hg10 mi
2:53 AM75 °FClear.5 mph94%30.03 "Hg10 mi
1:53 AM76 °FPassing clouds.3 mph91%30.04 "Hg10 mi
12:53 AM76 °FClear.3 mph91%30.06 "Hg10 mi
11:53 PM
Sun, Jul 24
76 °FClear.3 mph94%30.06 "Hg10 mi
10:53 PM77 °FClear.3 mph88%30.06 "Hg10 mi
9:53 PM78 °FClear.5 mph84%30.06 "Hg10 mi
8:53 PM80 °FPartly sunny.3 mph79%30.05 "Hg10 mi
7:53 PM81 °FSunny.No wind72%30.04 "Hg10 mi
6:53 PM80 °FSunny.5 mph79%30.02 "Hg10 mi
5:53 PM79 °FSunny.8 mph79%30.02 "Hg10 mi
4:53 PM76 °FLight rain. Partly sunny.10 mph91%30.02 "Hg8 mi
Weather by CustomWeather, © 2016

See weather overviewHow to use our weather pages